FENGYUN 1C DEB

Satellite information

Favourite Embed

Satellite Type and Status

DEBRISIN ORBIT

Key statistics

Satellite FENGYUN 1C DEB at a glance.

Uptime

9497

Days in orbit

Revolutions

≈ 14.6

Per day

Orbit

SSO

Sun Synchronous Orbit

Inclination

98.1

Latest

Satellite identification and parameters

Extended collection of information and parameters for FENGYUN 1C DEB.

Object identification

Identified? True

Debris? True

Object name: FENGYUN 1C DEB

International designator: 1999-025AMM

Object number (NORAD): 30606

Object ID (CCSDS): 30606

Country: PEOPLES REPUBLIC OF CHINA (PRC)

Current information (Y/N): Y

RCS size: SMALL

Orbital parameters

Period: 98.935 minutes

Inclination: 98.1023 deg

SMA: 7085.867 km

Apoapsis: 864.527 km

Periapsis: 550.936 km

RAAN: 145.1709 deg

Eccentricy: 0.0221279

Argument of periapsis: 94.9216 deg

Mean anomaly: 290.2613 deg

Mean motion: 14.55503683 rev/day

Mean motion (dot): 0.00003615 rev/day2

B* drag term: 0.00060478 1/REarth

Two-line elements (TLE)

Creation date: May 9, 2025, 5:15 p.m.

Reference frame: TEME

Reference center: EARTH

Epoch: May 9, 2025, 12:37 a.m. UTC

TLE line 0: 0 FENGYUN 1C DEB

TLE line 1: 1 30606U 99025AMM 25129.02573191 .00003615 00000-0 60478-3 0 9990

TLE line 2: 2 30606 98.1023 145.1709 0221279 94.9216 290.2613 14.55503683960739

Live tracking on map

Real-time ground track for satellite FENGYUN 1C DEB.

In-orbit conjunctions

A list of the most updated potential collisions computed for object FENGYUN 1C DEB.

Target Orbit TCA Probability of collision Miss distance Type
COSMOS 2242 LEO 2024-09-07 12:40:25 0.000117893 660.0 (m) PAYLOAD

Associated space launch

Chinese polar orbiting meteorological satellite

FENGYUN 1C DEB was lifted into orbit during the mission ‘Long March 4B | Feng Yun 1C’, on board a Long March 4B space rocket.

The launch took place on May 10, 1999, 1:33 a.m. from Launch Complex 7.

For more information about the launch, click the button.

Launch to space Long March 4B | Feng Yun 1C
Long March 4B | Feng Yun 1C

Agency: N/A

Status: Launch Successful

Launch date: May 10, 1999, 1:33 a.m. UTC

Rocket: Long March 4B

Launch pad: Launch Complex 7

Location: Taiyuan Satellite Launch Center, People's Republic of China

...

Latest news about this satellite

There are no fresh news available about this satellite. Check back as we update our databases every day.


Newsletter sign-up

Weekly statistics, charts and insights to help you stay on top of the space industry.